Fort Polk, LA

2:27 PM CDT on June 23, 2017 (GMT -0500)
Fort Polk

Weather History for KBKB - January, 2014

Change the Weather History Date:

Thursday, January 23, 2014

  Actual Average (KPOE) Record (KPOE)
Temperature  
Mean Temperature 36 °F -  
Max Temperature 46 °F 58 °F 78 °F (2002)
Min Temperature 26 °F 39 °F 24 °F (2014)
Degree Days  
Heating Degree Days 29    
Moisture  
Dew Point 29 °F    
Average Humidity 77    
Maximum Humidity 93    
Minimum Humidity 48    
Precipitation  
Precipitation 0.05 in - - ()
Sea Level Pressure  
Sea Level Pressure 30.51 in    
Wind  
Wind Speed 4 mph (NNE)    
Max Wind Speed 12 mph    
Max Gust Speed 26 mph    
Visibility 7 miles    
Events Rain , Snow    
Averages and records for this station are not official NWS values.
T = Trace of Precipitation, MM = Missing Value Source: NWS Daily Summary

Daily Weather History Graph

Daily Weather History Graph

Search for Another Location

Airport or City:

Trip Planner

Search our weather history database for the weather conditions in past years. The results will help you decide how hot, cold, wet, or windy it might be!

Date:

Astronomy

Jan. 23, 2014 Rise Set
Actual Time 7:08 AM CST 5:39 PM CST
Civil Twilight 6:42 AM CST 6:05 PM CST
Nautical Twilight 6:13 AM CST 6:34 PM CST
Astronomical Twilight 5:44 AM CST 7:03 PM CST
Moon No Moon Rise 11:14 AM CST
Length of Visible Light 11h 22m
Length of Day
10h 31m
Waning Gibbous, 55% of the Moon is Illuminated
Jan 23
Waning Gibbous
Jan 23
Last Quarter
Jan 30
New
Feb 6
First Quarter
Feb 14
Full

Hourly Weather History & Observations

Time (CST) Temp. Windchill Dew Point Humidity Pressure Visibility Wind Dir Wind Speed Gust Speed Precip Events Conditions
12:54 AM 42.1 °F - 37.9 °F 85% 30.23 in 10.0 mi Calm Calm - N/A   Clear
1:54 AM 41.0 °F - 37.0 °F 86% 30.23 in 10.0 mi Calm Calm - N/A   Clear
2:54 AM 43.0 °F - 37.0 °F 80% 30.24 in 10.0 mi Calm Calm - N/A   Partly Cloudy
3:12 AM 44.6 °F - 37.4 °F 76% 30.16 in 10.0 mi Calm Calm - N/A   Mostly Cloudy
3:33 AM 44.6 °F - 35.6 °F 71% 30.17 in 10.0 mi Calm Calm - N/A   Overcast
3:54 AM 45.0 °F 43.5 °F 35.1 °F 68% 30.99 in 10.0 mi ENE 3.5 mph - N/A   Overcast
4:54 AM 46.9 °F - 35.1 °F 63% 30.27 in 10.0 mi Calm Calm - N/A   Overcast
5:54 AM 45.0 °F - 37.0 °F 74% 30.31 in 10.0 mi Calm Calm - N/A   Mostly Cloudy
6:54 AM 45.0 °F 42.6 °F 36.0 °F 71% 30.32 in 10.0 mi Variable 4.6 mph - N/A   Overcast
7:54 AM 45.0 °F 42.6 °F 35.1 °F 68% 30.37 in 10.0 mi Variable 4.6 mph - N/A   Overcast
8:54 AM 44.1 °F 39.5 °F 35.1 °F 71% 30.40 in 10.0 mi NNE 8.1 mph - N/A   Overcast
9:54 AM 43.0 °F 38.8 °F 32.0 °F 65% 30.42 in 10.0 mi Variable 6.9 mph - 0.00 in   Overcast
10:54 AM 45.0 °F 43.5 °F 30.9 °F 58% 30.45 in 10.0 mi Variable 3.5 mph - N/A   Overcast
11:49 AM 44.6 °F 40.2 °F 26.6 °F 49% 30.36 in 10.0 mi NNE 8.1 mph - N/A   Overcast
11:54 AM 45.0 °F 40.1 °F 26.1 °F 48% 30.45 in 10.0 mi NNE 9.2 mph - N/A   Overcast
12:54 PM 43.0 °F 38.8 °F 25.0 °F 49% 30.46 in 10.0 mi Variable 6.9 mph - N/A   Overcast
1:54 PM 43.0 °F 38.8 °F 25.0 °F 49% 30.46 in 10.0 mi Variable 6.9 mph - N/A   Overcast
2:54 PM 39.9 °F 34.5 °F 27.0 °F 60% 30.48 in 10.0 mi NNE 8.1 mph 21.9 mph N/A   Overcast
3:54 PM 37.0 °F 29.3 °F 26.1 °F 65% 30.51 in 10.0 mi NNE 11.5 mph 20.7 mph 0.00 in Rain Light Rain
4:51 PM 33.8 °F 27.0 °F 30.2 °F 87% 30.46 in 4.0 mi NNE 8.1 mph - 0.02 in Rain Light Rain
4:54 PM 33.1 °F 26.9 °F 30.0 °F 89% 30.56 in 5.0 mi Variable 6.9 mph - 0.02 in Rain Light Rain
5:11 PM 33.8 °F 28.6 °F 30.2 °F 87% 30.47 in 5.0 mi Variable 5.8 mph - 0.01 in Rain Light Freezing Rain
5:47 PM 33.8 °F 26.4 °F 30.2 °F 87% 30.48 in 7.0 mi NNE 9.2 mph - 0.02 in Rain Light Freezing Rain
5:54 PM 33.1 °F 25.5 °F 28.9 °F 85% 30.58 in 7.0 mi NNE 9.2 mph 18.4 mph 0.02 in Rain Light Freezing Rain
6:29 PM 33.8 °F 27.7 °F 28.4 °F 81% 30.51 in 10.0 mi Variable 6.9 mph - 0.00 in Rain Light Rain
6:38 PM 33.8 °F 28.6 °F 28.4 °F 81% 30.51 in 10.0 mi NNE 5.8 mph - 0.00 in Rain Light Rain
6:54 PM 33.1 °F 24.4 °F 28.9 °F 85% 30.62 in 5.0 mi NNE 11.5 mph 19.6 mph 0.01 in Rain Light Freezing Rain
7:45 PM 32.0 °F 25.6 °F 28.4 °F 87% 30.55 in 6.0 mi Variable 6.9 mph 18.4 mph 0.00 in Rain Light Freezing Rain
7:54 PM 32.0 °F 23.6 °F 28.0 °F 85% 30.65 in 7.0 mi NNE 10.4 mph 20.7 mph 0.00 in Rain Light Freezing Rain
8:19 PM 30.2 °F 20.8 °F 26.6 °F 86% 30.56 in 8.0 mi NNE 11.5 mph 20.7 mph 0.00 in Rain Light Freezing Rain
8:34 PM 30.2 °F 24.3 °F 26.6 °F 86% 30.57 in 4.0 mi Variable 5.8 mph 19.6 mph 0.00 in Snow Light Snow
8:50 PM 30.2 °F 21.3 °F 26.6 °F 86% 30.59 in 2.5 mi NNE 10.4 mph 26.5 mph 0.00 in Snow Light Snow
8:54 PM 30.0 °F 20.5 °F 26.1 °F 85% 30.69 in 2.0 mi NNE 11.5 mph 23.0 mph 0.00 in Snow Light Snow
9:01 PM 30.2 °F 21.3 °F 26.6 °F 86% 30.59 in 1.8 mi NNE 10.4 mph 23.0 mph 0.00 in Snow Light Snow
9:37 PM 28.4 °F 19.7 °F 24.8 °F 86% 30.62 in 1.5 mi NNE 9.2 mph 18.4 mph 0.00 in Snow Light Snow
9:54 PM 27.0 °F 18.0 °F 23.0 °F 85% 30.72 in 1.5 mi NNE 9.2 mph 21.9 mph 0.00 in Snow Light Snow
10:18 PM 26.6 °F 17.5 °F 24.8 °F 93% 30.62 in 1.8 mi NNE 9.2 mph 17.3 mph 0.00 in Snow Light Snow
10:51 PM 26.6 °F 22.6 °F 24.8 °F 93% 30.63 in 1.2 mi Variable 3.5 mph - 0.00 in Snow Light Snow
10:54 PM 27.0 °F 20.5 °F 24.1 °F 89% 30.73 in 1.5 mi Variable 5.8 mph - 0.00 in Snow Light Snow
11:06 PM 26.6 °F 19.1 °F 21.2 °F 80% 30.64 in 2.5 mi NE 6.9 mph - 0.00 in Snow Light Snow
11:14 PM 26.6 °F 20.0 °F 21.2 °F 80% 30.64 in 1.8 mi Variable 5.8 mph - 0.00 in Snow Light Snow
11:21 PM 26.6 °F 22.6 °F 23.0 °F 86% 30.64 in 1.8 mi Variable 3.5 mph - 0.00 in Snow Light Snow
11:32 PM 26.6 °F 21.2 °F 23.0 °F 86% 30.64 in 2.0 mi Variable 4.6 mph - 0.00 in Snow Light Snow
11:54 PM 26.1 °F 19.4 °F 21.9 °F 84% 30.74 in 4.0 mi Variable 5.8 mph - 0.00 in Snow Light Snow